Location: İstanbul
(41.0082°N, 28.9784°E)
Time: 02:06:40
(UTC+03:00)

Gurwin Techsat 1B - Visible Passes

Search period start: 24 April 2024 00:00
Search period end: 04 May 2024 00:00
Orbit: 811 x 812 km, 98.9° (Epoch: 23 April)

Date Brightness Start Highest point End Pass type
(mag) Time Alt. Az. Time Alt. Az. Time Alt. Az.
24 Apr 10.9 03:28:37 10° NE 03:32:14 18° E 03:35:50 10° SE visible
24 Apr 8.8 05:07:15 10° N 05:12:27 56° WNW 05:17:36 10° SSW visible
25 Apr 11.3 03:07:43 10° ENE 03:08:45 11° E 03:09:46 10° E visible
25 Apr 8.6 04:43:57 10° NNE 04:49:18 90° WNW 04:54:37 10° SSW visible
26 Apr 9.2 04:20:51 10° NNE 04:26:05 56° E 04:31:17 10° S visible
27 Apr 10.0 03:57:58 10° NNE 04:02:47 34° E 04:07:34 10° SSE visible
28 Apr 10.7 03:35:25 10° NE 03:39:24 21° E 03:43:21 10° SE visible
28 Apr 9.0 05:14:24 10° N 05:19:30 49° WNW 05:24:36 10° SW visible
29 Apr 11.2 03:13:44 10° ENE 03:15:56 12° E 03:18:08 10° ESE visible
29 Apr 8.6 04:51:04 10° NNE 04:56:23 79° WNW 05:01:41 10° SSW visible
30 Apr 9.0 04:27:53 10° NNE 04:33:11 65° ESE 04:38:27 10° S visible
01 May 9.8 04:04:56 10° NNE 04:09:54 39° E 04:14:51 10° SSE visible
02 May 10.6 03:42:16 10° NE 03:46:33 24° E 03:50:47 10° SSE visible
02 May 9.1 05:21:34 10° N 05:26:33 42° WNW 05:31:32 10° SW visible
03 May 11.1 03:20:12 10° ENE 03:23:06 15° E 03:25:58 10° SE visible
03 May 8.6 04:58:09 10° N 05:03:27 69° WNW 05:08:43 10° SSW visible
